GEFSGL_prec_meanprecacc_258.txt.gz
Total_Precipitation_Accumulation
1.82 1.77 1.79 1.75 1.68 1.57 1.47 1.38 1.31 1.24 1.19 1.15 1.15 1.12 1.09 1.06 1.04 1.08 1.07 1.08 1.16 1.19 1.20 1.22 1.24 1.28 1.33 1.29 1.33 1.45 1.63 1.84 1.95 1.75 1.59 1.53 1.52 1.58 1.57 1.45 1.36 1.27 1.17
1.43 1.55 1.66 1.58 1.51 1.45 1.41 1.37 1.30 1.16 1.11 1.10 1.10 1.03 0.91 0.87 0.94 1.02 1.03 1.01 1.11 1.12 1.12 1.20 1.21 1.24 1.29 1.29 1.34 1.40 1.53 1.73 1.87 1.91 1.73 1.58 1.53 1.54 1.56 1.50 1.24 1.11 1.10
1.17 1.21 1.34 1.39 1.37 1.36 1.21 1.15 1.14 1.09 1.07 1.03 0.97 0.93 0.89 0.83 0.85 0.85 0.87 0.88 0.95 1.03 1.07 1.14 1.18 1.23 1.23 1.25 1.31 1.36 1.49 1.61 1.80 1.89 1.79 1.65 1.57 1.51 1.60 1.51 1.38 1.42 1.18
1.04 1.14 1.17 1.21 1.25 1.27 1.17 1.06 1.02 0.99 0.95 0.91 0.83 0.81 0.84 0.82 0.74 0.70 0.72 0.77 0.85 0.89 0.91 1.02 1.09 1.13 1.14 1.22 1.27 1.34 1.43 1.60 1.75 1.82 1.72 1.61 1.55 1.56 1.65 1.67 1.59 1.51 1.37
0.98 1.10 1.18 1.12 1.09 1.15 1.20 1.09 0.95 0.90 0.84 0.83 0.77 0.71 0.75 0.74 0.67 0.68 0.69 0.70 0.76 0.77 0.80 0.88 0.95 0.97 0.97 1.05 1.07 1.19 1.36 1.54 1.64 1.73 1.69 1.63 1.57 1.68 1.71 1.63 1.57 1.55 1.42
0.90 1.05 1.11 1.11 1.08 1.10 1.15 1.09 1.01 0.95 0.91 0.86 0.80 0.74 0.73 0.67 0.67 0.63 0.61 0.64 0.72 0.79 0.86 0.87 0.82 0.83 0.81 0.78 0.86 0.96 1.14 1.37 1.58 1.68 1.65 1.65 1.61 1.66 1.77 1.73 1.68 1.70 1.65
0.95 0.97 1.05 1.09 1.13 1.14 1.12 1.08 1.05 1.04 1.03 0.92 0.82 0.79 0.75 0.67 0.59 0.50 0.50 0.57 0.74 0.86 0.92 0.89 0.76 0.72 0.83 0.85 0.87 0.89 1.01 1.14 1.38 1.63 1.70 1.61 1.62 1.68 1.83 1.88 1.80 1.77 1.71
1.00 0.95 0.95 0.96 0.97 0.97 1.03 1.08 1.07 1.04 0.97 0.91 0.84 0.79 0.73 0.55 0.49 0.46 0.50 0.56 0.68 0.72 0.75 0.81 0.89 0.90 0.84 0.88 0.88 0.99 1.08 1.18 1.25 1.38 1.59 1.54 1.50 1.61 1.74 1.78 1.73 1.67 1.61
0.94 0.89 0.84 0.79 0.82 0.83 0.90 1.02 1.09 1.06 0.95 0.85 0.78 0.75 0.71 0.58 0.53 0.51 0.54 0.60 0.65 0.61 0.58 0.63 0.70 0.75 0.75 0.82 0.94 1.11 1.17 1.28 1.27 1.43 1.47 1.40 1.41 1.46 1.43 1.48 1.73 1.87 1.77
0.86 0.78 0.72 0.73 0.75 0.76 0.83 0.94 1.00 1.03 0.91 0.75 0.67 0.67 0.65 0.62 0.57 0.49 0.48 0.51 0.60 0.58 0.61 0.68 0.66 0.60 0.66 0.77 0.97 1.20 1.34 1.38 1.46 1.61 1.59 1.56 1.47 1.44 1.36 1.39 1.69 1.91 1.86
0.73 0.70 0.69 0.73 0.76 0.75 0.85 0.93 0.89 0.83 0.82 0.74 0.67 0.66 0.60 0.51 0.45 0.38 0.39 0.44 0.52 0.59 0.65 0.73 0.73 0.63 0.58 0.66 0.87 1.09 1.26 1.30 1.51 1.76 1.65 1.49 1.43 1.40 1.38 1.38 1.53 1.63 1.60
0.67 0.68 0.72 0.72 0.68 0.68 0.83 0.89 0.81 0.78 0.77 0.75 0.72 0.66 0.56 0.45 0.38 0.32 0.29 0.30 0.36 0.55 0.71 0.72 0.71 0.67 0.63 0.71 0.86 1.04 1.16 1.35 1.55 1.66 1.46 1.29 1.20 1.19 1.23 1.19 1.17 1.20 1.25
0.62 0.70 0.71 0.67 0.75 0.76 0.74 0.75 0.75 0.76 0.67 0.60 0.61 0.58 0.52 0.47 0.39 0.29 0.25 0.26 0.32 0.47 0.64 0.69 0.65 0.62 0.72 0.93 1.05 1.15 1.31 1.53 1.59 1.46 1.33 1.20 1.08 1.10 1.08 1.05 1.04 1.09 1.07
0.66 0.69 0.66 0.68 0.79 0.80 0.71 0.61 0.58 0.58 0.54 0.51 0.52 0.50 0.51 0.50 0.40 0.33 0.33 0.34 0.38 0.46 0.59 0.73 0.77 0.78 0.94 1.15 1.29 1.39 1.49 1.58 1.45 1.31 1.24 1.11 0.98 1.04 1.08 1.04 1.14 1.16 1.14
0.60 0.64 0.64 0.65 0.71 0.76 0.67 0.52 0.47 0.42 0.36 0.36 0.38 0.39 0.45 0.44 0.33 0.31 0.33 0.37 0.42 0.47 0.57 0.74 0.89 0.93 1.05 1.21 1.34 1.41 1.46 1.47 1.41 1.28 1.19 1.10 1.01 0.99 0.96 0.91 1.00 1.07 1.11
0.58 0.55 0.51 0.54 0.57 0.60 0.59 0.50 0.34 0.21 0.16 0.15 0.16 0.21 0.25 0.26 0.24 0.23 0.26 0.32 0.38 0.48 0.64 0.90 0.98 0.96 1.02 1.12 1.23 1.33 1.32 1.29 1.26 1.27 1.26 1.20 1.10 0.98 0.94 0.90 0.91 0.99 1.07
0.54 0.53 0.44 0.42 0.47 0.49 0.48 0.53 0.48 0.29 0.15 0.11 0.10 0.13 0.16 0.16 0.19 0.21 0.23 0.29 0.35 0.48 0.68 0.88 0.98 1.02 1.06 1.10 1.12 1.16 1.22 1.23 1.17 1.17 1.20 1.14 1.02 0.95 0.93 0.93 0.91 0.96 1.00
0.40 0.37 0.38 0.44 0.44 0.41 0.39 0.38 0.41 0.48 0.42 0.31 0.19 0.16 0.17 0.19 0.22 0.22 0.25 0.30 0.38 0.45 0.65 0.83 0.93 0.99 1.04 1.09 1.09 1.06 1.10 1.13 1.08 1.02 1.05 1.04 0.97 0.93 0.94 0.94 0.93 0.89 0.90
0.38 0.36 0.37 0.39 0.37 0.34 0.30 0.29 0.32 0.38 0.41 0.40 0.35 0.28 0.24 0.25 0.26 0.27 0.32 0.40 0.48 0.52 0.59 0.70 0.80 0.89 0.91 0.93 0.97 0.98 1.02 1.07 1.00 0.96 0.99 1.03 1.01 0.95 0.89 0.81 0.76 0.68 0.74
0.30 0.27 0.29 0.32 0.29 0.27 0.28 0.29 0.29 0.34 0.37 0.38 0.40 0.38 0.35 0.43 0.52 0.48 0.44 0.48 0.53 0.53 0.56 0.66 0.74 0.77 0.78 0.74 0.75 0.79 0.84 0.86 0.88 0.91 0.94 0.92 0.87 0.83 0.75 0.67 0.66 0.67 0.71
0.26 0.24 0.25 0.24 0.22 0.23 0.26 0.25 0.23 0.27 0.32 0.35 0.32 0.31 0.42 0.52 0.60 0.58 0.56 0.60 0.63 0.62 0.60 0.64 0.68 0.69 0.68 0.65 0.64 0.64 0.68 0.73 0.77 0.79 0.84 0.82 0.76 0.71 0.66 0.60 0.57 0.56 0.56
0.22 0.24 0.23 0.20 0.20 0.20 0.21 0.21 0.21 0.25 0.28 0.32 0.32 0.32 0.43 0.48 0.53 0.57 0.60 0.67 0.71 0.69 0.66 0.67 0.66 0.65 0.64 0.63 0.59 0.58 0.60 0.65 0.68 0.71 0.71 0.68 0.65 0.62 0.53 0.50 0.48 0.46 0.47
0.22 0.23 0.22 0.19 0.19 0.19 0.19 0.20 0.20 0.23 0.25 0.29 0.32 0.35 0.41 0.50 0.54 0.61 0.69 0.72 0.73 0.75 0.70 0.64 0.70 0.72 0.64 0.56 0.51 0.49 0.51 0.54 0.55 0.60 0.68 0.67 0.59 0.53 0.48 0.43 0.43 0.44 0.44
0.21 0.21 0.21 0.21 0.21 0.21 0.21 0.20 0.17 0.17 0.21 0.24 0.28 0.29 0.32 0.38 0.46 0.51 0.59 0.65 0.71 0.76 0.74 0.72 0.76 0.70 0.57 0.50 0.45 0.44 0.47 0.51 0.51 0.55 0.57 0.59 0.54 0.47 0.42 0.40 0.39 0.42 0.45
0.18 0.19 0.19 0.19 0.19 0.19 0.19 0.18 0.16 0.17 0.20 0.20 0.21 0.23 0.26 0.30 0.34 0.39 0.46 0.51 0.56 0.63 0.62 0.63 0.64 0.55 0.48 0.43 0.41 0.42 0.48 0.47 0.44 0.49 0.54 0.56 0.49 0.44 0.42 0.38 0.37 0.39 0.41
0.16 0.15 0.15 0.15 0.14 0.14 0.15 0.16 0.15 0.17 0.19 0.19 0.18 0.21 0.25 0.27 0.30 0.34 0.37 0.40 0.43 0.48 0.51 0.54 0.53 0.44 0.37 0.35 0.35 0.34 0.32 0.28 0.27 0.33 0.45 0.48 0.42 0.38 0.40 0.40 0.36 0.39 0.43

GEFSGL_prec_meanprecacc_264.txt.gz
Total_Precipitation_Accumulation
1.83 1.79 1.82 1.78 1.71 1.59 1.50 1.41 1.33 1.25 1.20 1.16 1.16 1.14 1.12 1.09 1.07 1.11 1.09 1.11 1.18 1.20 1.21 1.23 1.26 1.30 1.36 1.32 1.36 1.48 1.65 1.87 1.99 1.78 1.61 1.54 1.53 1.60 1.60 1.47 1.38 1.29 1.20
1.45 1.57 1.68 1.59 1.53 1.47 1.44 1.40 1.32 1.17 1.13 1.12 1.12 1.05 0.92 0.89 0.96 1.04 1.05 1.02 1.12 1.13 1.13 1.21 1.23 1.26 1.32 1.33 1.37 1.43 1.56 1.76 1.91 1.95 1.76 1.60 1.54 1.56 1.58 1.51 1.26 1.13 1.12
1.19 1.23 1.35 1.40 1.39 1.37 1.23 1.17 1.16 1.11 1.09 1.05 0.99 0.95 0.90 0.86 0.88 0.89 0.90 0.89 0.96 1.05 1.08 1.15 1.19 1.24 1.25 1.28 1.33 1.38 1.50 1.63 1.83 1.91 1.81 1.67 1.58 1.52 1.62 1.52 1.38 1.44 1.19
1.05 1.15 1.19 1.22 1.27 1.28 1.19 1.10 1.06 1.01 0.98 0.93 0.84 0.82 0.87 0.85 0.77 0.72 0.73 0.78 0.87 0.90 0.92 1.03 1.10 1.14 1.15 1.23 1.29 1.36 1.45 1.62 1.78 1.85 1.74 1.62 1.56 1.57 1.66 1.68 1.60 1.52 1.38
0.99 1.11 1.19 1.13 1.10 1.17 1.23 1.12 0.97 0.93 0.86 0.84 0.78 0.73 0.77 0.75 0.68 0.69 0.70 0.71 0.77 0.78 0.81 0.89 0.96 0.98 0.99 1.06 1.09 1.21 1.39 1.57 1.67 1.76 1.71 1.65 1.58 1.69 1.71 1.64 1.58 1.56 1.43
0.91 1.06 1.12 1.12 1.09 1.11 1.16 1.11 1.02 0.96 0.92 0.87 0.81 0.76 0.74 0.68 0.67 0.63 0.62 0.66 0.74 0.81 0.87 0.88 0.84 0.84 0.82 0.79 0.86 0.97 1.17 1.40 1.60 1.71 1.68 1.67 1.63 1.68 1.78 1.75 1.70 1.72 1.67
0.96 0.98 1.06 1.09 1.14 1.16 1.14 1.10 1.06 1.05 1.04 0.94 0.83 0.80 0.76 0.68 0.60 0.50 0.51 0.59 0.76 0.88 0.94 0.91 0.77 0.73 0.84 0.85 0.87 0.89 1.02 1.15 1.39 1.64 1.72 1.64 1.64 1.69 1.85 1.90 1.82 1.80 1.74
1.02 0.96 0.97 0.97 0.99 0.99 1.05 1.10 1.08 1.05 0.99 0.93 0.85 0.81 0.75 0.58 0.51 0.47 0.51 0.57 0.69 0.74 0.76 0.82 0.90 0.91 0.85 0.89 0.89 1.00 1.09 1.19 1.26 1.39 1.60 1.56 1.52 1.63 1.77 1.80 1.76 1.70 1.64
0.96 0.92 0.87 0.82 0.84 0.85 0.92 1.03 1.11 1.08 0.97 0.88 0.80 0.78 0.74 0.62 0.55 0.52 0.55 0.61 0.67 0.62 0.59 0.64 0.71 0.76 0.77 0.84 0.95 1.12 1.18 1.30 1.29 1.44 1.47 1.41 1.42 1.46 1.44 1.50 1.75 1.89 1.80
0.88 0.81 0.75 0.76 0.79 0.80 0.85 0.96 1.03 1.07 0.95 0.78 0.70 0.71 0.68 0.65 0.58 0.49 0.49 0.52 0.61 0.59 0.63 0.69 0.66 0.60 0.67 0.78 0.98 1.21 1.37 1.42 1.50 1.63 1.60 1.57 1.48 1.45 1.37 1.41 1.72 1.94 1.91
0.76 0.73 0.72 0.75 0.79 0.78 0.87 0.95 0.92 0.86 0.84 0.76 0.70 0.68 0.62 0.52 0.45 0.38 0.39 0.45 0.53 0.60 0.67 0.75 0.74 0.63 0.59 0.67 0.88 1.10 1.27 1.32 1.54 1.79 1.66 1.50 1.45 1.42 1.39 1.40 1.55 1.67 1.65
0.69 0.71 0.75 0.75 0.71 0.71 0.86 0.93 0.84 0.80 0.79 0.76 0.73 0.68 0.57 0.46 0.38 0.32 0.29 0.31 0.37 0.56 0.72 0.73 0.72 0.67 0.63 0.71 0.86 1.04 1.17 1.36 1.57 1.68 1.47 1.31 1.22 1.20 1.25 1.21 1.20 1.23 1.29
0.65 0.73 0.76 0.71 0.78 0.79 0.77 0.78 0.78 0.78 0.68 0.62 0.63 0.60 0.54 0.48 0.40 0.30 0.26 0.27 0.33 0.47 0.64 0.70 0.66 0.62 0.72 0.93 1.05 1.16 1.32 1.55 1.60 1.47 1.34 1.21 1.10 1.12 1.10 1.07 1.07 1.11 1.10
0.68 0.72 0.70 0.71 0.82 0.82 0.74 0.64 0.61 0.60 0.56 0.53 0.54 0.53 0.53 0.53 0.42 0.35 0.35 0.35 0.39 0.46 0.60 0.74 0.78 0.78 0.95 1.16 1.30 1.40 1.51 1.60 1.46 1.32 1.24 1.12 1.00 1.07 1.12 1.07 1.16 1.19 1.18
0.62 0.66 0.66 0.68 0.73 0.79 0.70 0.55 0.50 0.44 0.37 0.37 0.40 0.40 0.46 0.45 0.34 0.32 0.34 0.38 0.43 0.48 0.58 0.76 0.90 0.94 1.07 1.22 1.35 1.42 1.48 1.49 1.42 1.29 1.21 1.12 1.04 1.03 1.00 0.94 1.04 1.11 1.15
0.60 0.57 0.53 0.56 0.59 0.63 0.62 0.53 0.36 0.23 0.17 0.16 0.17 0.22 0.25 0.26 0.24 0.23 0.26 0.32 0.38 0.48 0.64 0.91 1.00 0.98 1.03 1.13 1.25 1.34 1.34 1.32 1.28 1.29 1.27 1.22 1.13 1.03 0.99 0.94 0.95 1.03 1.12
0.55 0.54 0.45 0.44 0.49 0.50 0.50 0.56 0.50 0.31 0.16 0.11 0.10 0.14 0.16 0.17 0.20 0.21 0.24 0.30 0.36 0.49 0.69 0.90 1.00 1.04 1.07 1.11 1.14 1.18 1.24 1.25 1.19 1.21 1.23 1.17 1.06 0.98 0.96 0.96 0.95 1.00 1.03
0.42 0.39 0.40 0.45 0.45 0.42 0.39 0.39 0.43 0.50 0.45 0.33 0.20 0.17 0.18 0.20 0.23 0.23 0.26 0.31 0.39 0.47 0.68 0.86 0.97 1.04 1.09 1.12 1.12 1.09 1.13 1.16 1.11 1.06 1.10 1.09 1.01 0.96 0.97 0.98 0.98 0.93 0.94
0.40 0.38 0.39 0.40 0.39 0.34 0.30 0.29 0.32 0.40 0.43 0.43 0.38 0.30 0.26 0.27 0.29 0.30 0.35 0.43 0.51 0.55 0.62 0.74 0.85 0.94 0.96 0.97 1.02 1.03 1.06 1.11 1.04 1.00 1.04 1.07 1.04 0.99 0.93 0.85 0.81 0.73 0.79
0.31 0.29 0.31 0.34 0.30 0.27 0.28 0.30 0.30 0.35 0.39 0.41 0.44 0.41 0.38 0.45 0.54 0.50 0.46 0.51 0.56 0.57 0.59 0.68 0.76 0.79 0.80 0.76 0.77 0.82 0.86 0.89 0.90 0.95 1.00 0.96 0.90 0.86 0.78 0.71 0.70 0.73 0.78
0.28 0.27 0.27 0.25 0.23 0.24 0.27 0.27 0.25 0.29 0.33 0.37 0.34 0.34 0.45 0.54 0.61 0.59 0.57 0.61 0.65 0.65 0.63 0.67 0.70 0.70 0.69 0.66 0.65 0.66 0.70 0.75 0.79 0.82 0.87 0.85 0.78 0.74 0.69 0.62 0.60 0.60 0.61
0.24 0.26 0.24 0.21 0.21 0.20 0.22 0.23 0.23 0.26 0.29 0.34 0.34 0.34 0.45 0.50 0.55 0.58 0.62 0.69 0.73 0.71 0.67 0.68 0.67 0.66 0.65 0.64 0.61 0.60 0.62 0.66 0.70 0.73 0.73 0.70 0.67 0.64 0.56 0.52 0.50 0.49 0.50
0.23 0.24 0.23 0.21 0.20 0.20 0.21 0.22 0.22 0.24 0.26 0.30 0.34 0.37 0.43 0.53 0.57 0.63 0.71 0.74 0.74 0.75 0.70 0.65 0.70 0.72 0.64 0.58 0.53 0.51 0.52 0.55 0.56 0.62 0.69 0.69 0.61 0.55 0.50 0.46 0.45 0.46 0.46
0.23 0.22 0.21 0.22 0.23 0.23 0.23 0.22 0.20 0.20 0.23 0.26 0.31 0.32 0.36 0.42 0.48 0.52 0.60 0.66 0.72 0.76 0.74 0.73 0.77 0.71 0.58 0.52 0.48 0.46 0.49 0.53 0.54 0.57 0.60 0.61 0.56 0.49 0.43 0.41 0.41 0.45 0.48
0.19 0.20 0.20 0.20 0.20 0.20 0.21 0.21 0.19 0.20 0.22 0.22 0.23 0.24 0.27 0.31 0.35 0.40 0.47 0.51 0.56 0.64 0.63 0.64 0.65 0.57 0.50 0.45 0.43 0.44 0.51 0.49 0.46 0.51 0.56 0.58 0.51 0.45 0.43 0.38 0.39 0.41 0.43
0.17 0.17 0.16 0.16 0.15 0.15 0.16 0.18 0.17 0.18 0.20 0.20 0.19 0.21 0.25 0.28 0.31 0.35 0.38 0.40 0.43 0.48 0.52 0.55 0.54 0.45 0.38 0.37 0.37 0.36 0.34 0.30 0.29 0.35 0.47 0.50 0.44 0.39 0.41 0.41 0.37 0.40 0.45

GEFSGL_prec_meanprecacc_270.txt.gz
Total_Precipitation_Accumulation
1.85 1.82 1.84 1.81 1.74 1.61 1.52 1.44 1.37 1.29 1.24 1.20 1.19 1.16 1.14 1.11 1.09 1.13 1.12 1.15 1.21 1.23 1.24 1.27 1.29 1.34 1.40 1.35 1.40 1.52 1.69 1.92 2.04 1.82 1.67 1.59 1.57 1.63 1.62 1.49 1.40 1.31 1.21
1.47 1.60 1.71 1.62 1.56 1.49 1.46 1.43 1.37 1.22 1.18 1.16 1.15 1.07 0.94 0.90 0.98 1.06 1.07 1.05 1.15 1.16 1.16 1.24 1.25 1.28 1.35 1.35 1.40 1.46 1.59 1.79 1.94 1.98 1.79 1.64 1.59 1.59 1.60 1.53 1.27 1.14 1.13
1.22 1.27 1.40 1.43 1.41 1.39 1.26 1.21 1.21 1.16 1.13 1.08 1.01 0.97 0.92 0.87 0.90 0.90 0.91 0.92 0.99 1.07 1.10 1.17 1.22 1.27 1.28 1.30 1.35 1.40 1.53 1.66 1.84 1.94 1.83 1.70 1.61 1.55 1.65 1.54 1.39 1.45 1.20
1.09 1.19 1.22 1.25 1.30 1.33 1.24 1.15 1.10 1.05 1.02 0.97 0.87 0.85 0.89 0.87 0.79 0.73 0.75 0.81 0.89 0.92 0.94 1.05 1.12 1.17 1.18 1.26 1.31 1.38 1.47 1.65 1.81 1.87 1.77 1.64 1.59 1.59 1.69 1.70 1.62 1.53 1.39
1.03 1.14 1.22 1.16 1.15 1.22 1.28 1.17 1.02 0.97 0.90 0.88 0.82 0.76 0.80 0.77 0.69 0.70 0.71 0.72 0.78 0.80 0.82 0.91 0.97 1.00 1.01 1.07 1.10 1.23 1.41 1.60 1.70 1.79 1.75 1.68 1.61 1.72 1.74 1.66 1.60 1.58 1.44
0.95 1.09 1.15 1.15 1.14 1.16 1.21 1.15 1.07 1.01 0.97 0.92 0.87 0.81 0.78 0.70 0.69 0.64 0.62 0.66 0.75 0.83 0.90 0.90 0.86 0.86 0.83 0.80 0.88 0.99 1.18 1.42 1.64 1.75 1.71 1.70 1.66 1.71 1.81 1.77 1.73 1.75 1.69
1.00 1.01 1.08 1.12 1.16 1.19 1.18 1.15 1.12 1.12 1.13 1.03 0.93 0.89 0.83 0.73 0.62 0.51 0.51 0.60 0.77 0.89 0.96 0.93 0.79 0.74 0.85 0.87 0.89 0.91 1.03 1.16 1.40 1.67 1.75 1.67 1.68 1.73 1.88 1.94 1.86 1.83 1.77
1.04 0.99 0.99 0.99 1.01 1.02 1.10 1.14 1.13 1.11 1.05 0.99 0.90 0.86 0.83 0.63 0.53 0.48 0.51 0.57 0.71 0.76 0.78 0.84 0.92 0.93 0.87 0.90 0.91 1.02 1.10 1.21 1.28 1.41 1.63 1.59 1.55 1.67 1.81 1.84 1.79 1.74 1.67
0.98 0.94 0.89 0.83 0.86 0.88 0.96 1.07 1.16 1.14 1.02 0.92 0.84 0.81 0.78 0.64 0.57 0.53 0.56 0.62 0.68 0.65 0.61 0.65 0.72 0.78 0.78 0.85 0.96 1.14 1.20 1.33 1.30 1.45 1.49 1.43 1.44 1.48 1.46 1.52 1.78 1.92 1.83
0.90 0.83 0.77 0.77 0.81 0.83 0.89 1.00 1.08 1.12 0.99 0.81 0.74 0.75 0.71 0.68 0.60 0.51 0.50 0.53 0.62 0.62 0.65 0.71 0.68 0.62 0.67 0.79 0.99 1.23 1.39 1.46 1.53 1.66 1.62 1.59 1.49 1.46 1.38 1.43 1.74 1.96 1.95
0.78 0.75 0.73 0.77 0.83 0.82 0.93 1.01 0.97 0.91 0.88 0.79 0.73 0.72 0.65 0.54 0.47 0.39 0.40 0.46 0.55 0.62 0.69 0.77 0.77 0.64 0.59 0.67 0.88 1.11 1.29 1.34 1.57 1.83 1.69 1.53 1.48 1.45 1.42 1.42 1.58 1.71 1.70
0.72 0.75 0.78 0.78 0.74 0.75 0.91 0.98 0.90 0.86 0.84 0.80 0.76 0.71 0.60 0.49 0.39 0.33 0.30 0.31 0.37 0.58 0.75 0.75 0.73 0.68 0.65 0.72 0.87 1.04 1.18 1.38 1.59 1.71 1.50 1.33 1.24 1.22 1.28 1.25 1.24 1.27 1.34
0.68 0.78 0.80 0.74 0.82 0.84 0.83 0.85 0.86 0.86 0.76 0.68 0.68 0.65 0.59 0.53 0.43 0.31 0.27 0.27 0.33 0.48 0.65 0.71 0.67 0.63 0.73 0.95 1.06 1.16 1.33 1.56 1.62 1.49 1.35 1.22 1.11 1.14 1.12 1.11 1.10 1.16 1.15
0.72 0.77 0.75 0.77 0.86 0.87 0.79 0.68 0.66 0.67 0.64 0.59 0.58 0.57 0.57 0.57 0.45 0.37 0.36 0.35 0.39 0.47 0.61 0.74 0.79 0.79 0.96 1.16 1.31 1.40 1.52 1.62 1.47 1.33 1.26 1.14 1.02 1.10 1.15 1.10 1.20 1.23 1.22
0.67 0.72 0.71 0.73 0.78 0.83 0.74 0.59 0.53 0.47 0.42 0.43 0.45 0.43 0.49 0.48 0.36 0.33 0.35 0.39 0.43 0.49 0.59 0.77 0.92 0.96 1.08 1.23 1.36 1.44 1.50 1.51 1.44 1.30 1.23 1.15 1.07 1.07 1.04 0.98 1.07 1.14 1.19
0.65 0.62 0.58 0.61 0.64 0.67 0.67 0.57 0.39 0.26 0.20 0.20 0.22 0.26 0.27 0.27 0.24 0.23 0.26 0.33 0.39 0.48 0.65 0.93 1.02 1.00 1.05 1.14 1.26 1.37 1.38 1.35 1.32 1.33 1.31 1.27 1.19 1.08 1.03 0.98 0.99 1.07 1.15
0.61 0.58 0.49 0.48 0.53 0.55 0.55 0.61 0.54 0.34 0.19 0.14 0.14 0.18 0.19 0.18 0.20 0.22 0.24 0.30 0.37 0.50 0.70 0.92 1.03 1.06 1.09 1.13 1.16 1.21 1.27 1.29 1.24 1.26 1.28 1.22 1.11 1.03 1.00 0.99 0.99 1.04 1.07
0.46 0.42 0.43 0.50 0.49 0.46 0.44 0.44 0.48 0.54 0.47 0.35 0.23 0.20 0.21 0.22 0.24 0.24 0.26 0.32 0.40 0.49 0.70 0.89 1.00 1.05 1.10 1.14 1.15 1.12 1.16 1.20 1.16 1.11 1.15 1.13 1.05 1.00 1.00 1.01 1.01 0.97 0.97
0.43 0.41 0.42 0.44 0.42 0.38 0.35 0.34 0.36 0.42 0.46 0.46 0.41 0.34 0.30 0.29 0.30 0.31 0.36 0.45 0.54 0.58 0.66 0.77 0.88 0.96 0.98 1.00 1.05 1.07 1.10 1.14 1.09 1.05 1.09 1.11 1.08 1.02 0.95 0.87 0.83 0.76 0.83
0.35 0.32 0.34 0.36 0.32 0.30 0.31 0.35 0.34 0.38 0.42 0.44 0.47 0.44 0.41 0.49 0.58 0.54 0.49 0.53 0.58 0.59 0.60 0.70 0.78 0.81 0.82 0.79 0.81 0.85 0.89 0.92 0.93 0.98 1.03 1.00 0.93 0.89 0.81 0.73 0.72 0.75 0.80
0.30 0.29 0.30 0.29 0.26 0.26 0.30 0.31 0.29 0.33 0.37 0.40 0.36 0.35 0.47 0.56 0.64 0.62 0.60 0.63 0.67 0.66 0.64 0.68 0.72 0.72 0.71 0.69 0.67 0.68 0.72 0.77 0.80 0.83 0.89 0.87 0.80 0.75 0.70 0.64 0.61 0.61 0.63
0.25 0.27 0.26 0.24 0.23 0.23 0.24 0.26 0.26 0.30 0.33 0.37 0.37 0.36 0.48 0.52 0.56 0.60 0.66 0.73 0.77 0.73 0.68 0.69 0.68 0.67 0.67 0.66 0.62 0.61 0.63 0.67 0.71 0.74 0.75 0.71 0.69 0.65 0.57 0.54 0.51 0.50 0.51
0.24 0.26 0.25 0.22 0.22 0.22 0.23 0.25 0.24 0.27 0.28 0.32 0.36 0.40 0.46 0.55 0.60 0.67 0.75 0.77 0.76 0.77 0.71 0.65 0.71 0.74 0.66 0.59 0.55 0.53 0.53 0.56 0.58 0.63 0.71 0.70 0.63 0.56 0.51 0.47 0.46 0.47 0.47
0.25 0.24 0.23 0.24 0.24 0.24 0.25 0.24 0.22 0.21 0.25 0.29 0.33 0.35 0.39 0.45 0.51 0.56 0.63 0.67 0.73 0.77 0.76 0.74 0.78 0.72 0.59 0.53 0.49 0.47 0.50 0.54 0.55 0.58 0.61 0.62 0.57 0.50 0.44 0.42 0.42 0.46 0.49
0.23 0.23 0.22 0.22 0.22 0.22 0.23 0.22 0.20 0.21 0.24 0.25 0.26 0.28 0.30 0.33 0.37 0.43 0.49 0.53 0.58 0.65 0.64 0.65 0.65 0.58 0.51 0.46 0.43 0.45 0.52 0.51 0.48 0.52 0.57 0.59 0.52 0.47 0.44 0.40 0.40 0.42 0.45
0.21 0.20 0.19 0.19 0.17 0.17 0.18 0.19 0.19 0.20 0.22 0.22 0.21 0.24 0.28 0.31 0.34 0.37 0.40 0.42 0.45 0.50 0.52 0.55 0.54 0.46 0.39 0.37 0.38 0.37 0.35 0.31 0.30 0.36 0.47 0.51 0.45 0.40 0.42 0.42 0.39 0.41 0.46

GEFSGL_prec_meanprecacc_276.txt.gz
Total_Precipitation_Accumulation
1.89 1.84 1.86 1.84 1.77 1.65 1.55 1.47 1.39 1.32 1.27 1.23 1.22 1.18 1.17 1.16 1.13 1.16 1.14 1.17 1.24 1.25 1.26 1.28 1.30 1.35 1.41 1.36 1.41 1.53 1.70 1.94 2.07 1.87 1.71 1.62 1.60 1.65 1.64 1.52 1.43 1.34 1.23
1.50 1.62 1.73 1.65 1.60 1.53 1.50 1.47 1.40 1.26 1.22 1.19 1.19 1.11 0.98 0.94 1.02 1.09 1.10 1.07 1.17 1.18 1.17 1.26 1.27 1.30 1.36 1.36 1.41 1.47 1.60 1.80 1.95 1.99 1.81 1.65 1.60 1.61 1.62 1.55 1.30 1.17 1.15
1.27 1.31 1.43 1.46 1.45 1.43 1.30 1.26 1.26 1.22 1.19 1.13 1.06 1.03 0.97 0.90 0.93 0.94 0.96 0.94 1.00 1.08 1.11 1.19 1.23 1.28 1.29 1.31 1.37 1.41 1.54 1.67 1.86 1.96 1.84 1.71 1.63 1.57 1.67 1.56 1.42 1.48 1.22
1.16 1.30 1.32 1.34 1.40 1.44 1.41 1.33 1.25 1.18 1.13 1.06 0.96 0.91 0.96 0.92 0.82 0.77 0.79 0.83 0.91 0.94 0.95 1.06 1.13 1.18 1.19 1.27 1.32 1.40 1.48 1.67 1.83 1.91 1.79 1.66 1.60 1.60 1.70 1.72 1.63 1.56 1.42
1.06 1.19 1.28 1.22 1.21 1.29 1.37 1.26 1.10 1.05 0.97 0.94 0.89 0.85 0.89 0.83 0.72 0.73 0.74 0.74 0.81 0.82 0.84 0.92 0.98 1.01 1.02 1.08 1.11 1.24 1.42 1.61 1.71 1.81 1.76 1.69 1.61 1.72 1.75 1.68 1.62 1.60 1.46
0.98 1.11 1.18 1.17 1.16 1.18 1.23 1.17 1.10 1.03 1.00 0.95 0.94 0.91 0.87 0.75 0.72 0.67 0.66 0.70 0.77 0.84 0.91 0.92 0.87 0.87 0.84 0.81 0.88 0.99 1.19 1.43 1.64 1.76 1.73 1.72 1.67 1.71 1.82 1.79 1.74 1.76 1.70
1.03 1.03 1.10 1.13 1.18 1.20 1.19 1.16 1.13 1.14 1.14 1.05 0.96 0.93 0.87 0.77 0.66 0.54 0.53 0.62 0.79 0.91 0.98 0.95 0.80 0.75 0.86 0.88 0.89 0.91 1.04 1.17 1.41 1.68 1.77 1.69 1.70 1.75 1.91 1.96 1.88 1.85 1.78
1.05 1.00 1.01 1.00 1.02 1.03 1.10 1.15 1.14 1.13 1.07 1.00 0.93 0.89 0.86 0.68 0.58 0.51 0.53 0.59 0.73 0.78 0.79 0.85 0.92 0.94 0.88 0.92 0.92 1.03 1.11 1.22 1.29 1.43 1.65 1.61 1.57 1.69 1.84 1.87 1.82 1.76 1.68
1.00 0.96 0.91 0.85 0.87 0.90 0.97 1.08 1.17 1.15 1.04 0.94 0.86 0.84 0.80 0.66 0.59 0.56 0.57 0.63 0.70 0.66 0.62 0.67 0.74 0.79 0.79 0.86 0.97 1.15 1.21 1.33 1.31 1.47 1.51 1.45 1.46 1.50 1.49 1.56 1.82 1.95 1.85
0.91 0.84 0.78 0.79 0.83 0.84 0.91 1.02 1.09 1.14 1.02 0.84 0.76 0.77 0.73 0.70 0.61 0.52 0.51 0.54 0.65 0.65 0.67 0.72 0.69 0.63 0.68 0.80 1.00 1.24 1.40 1.46 1.54 1.67 1.63 1.60 1.51 1.48 1.40 1.45 1.76 1.99 1.96
0.80 0.77 0.76 0.80 0.85 0.84 0.95 1.03 1.00 0.94 0.91 0.82 0.76 0.75 0.67 0.57 0.49 0.40 0.42 0.48 0.58 0.66 0.72 0.79 0.78 0.65 0.60 0.67 0.89 1.12 1.29 1.35 1.59 1.84 1.70 1.54 1.49 1.46 1.43 1.44 1.60 1.72 1.71
0.75 0.77 0.80 0.80 0.76 0.76 0.92 1.00 0.92 0.89 0.88 0.83 0.80 0.74 0.63 0.52 0.43 0.36 0.33 0.34 0.40 0.59 0.75 0.75 0.74 0.69 0.65 0.72 0.88 1.05 1.18 1.38 1.60 1.72 1.51 1.34 1.25 1.24 1.29 1.26 1.26 1.29 1.36
0.71 0.80 0.82 0.77 0.84 0.85 0.84 0.87 0.88 0.89 0.79 0.71 0.73 0.69 0.62 0.56 0.47 0.36 0.31 0.30 0.35 0.49 0.66 0.72 0.68 0.64 0.74 0.95 1.07 1.17 1.33 1.57 1.63 1.50 1.36 1.24 1.13 1.15 1.14 1.13 1.13 1.18 1.18
0.75 0.81 0.80 0.82 0.90 0.89 0.81 0.71 0.69 0.70 0.67 0.62 0.62 0.60 0.60 0.61 0.49 0.40 0.39 0.38 0.41 0.49 0.63 0.76 0.80 0.80 0.97 1.17 1.31 1.40 1.52 1.62 1.48 1.34 1.27 1.15 1.04 1.12 1.16 1.12 1.22 1.26 1.25
0.69 0.75 0.76 0.76 0.81 0.86 0.78 0.63 0.58 0.51 0.44 0.45 0.47 0.46 0.52 0.51 0.40 0.37 0.38 0.41 0.45 0.51 0.60 0.79 0.94 0.98 1.09 1.24 1.37 1.44 1.50 1.51 1.44 1.31 1.23 1.15 1.08 1.08 1.05 1.00 1.10 1.17 1.21
0.66 0.63 0.59 0.62 0.66 0.69 0.70 0.60 0.43 0.29 0.23 0.22 0.24 0.28 0.29 0.30 0.27 0.27 0.30 0.36 0.41 0.51 0.67 0.94 1.03 1.01 1.06 1.15 1.27 1.38 1.38 1.36 1.33 1.33 1.32 1.28 1.21 1.11 1.06 1.00 1.01 1.09 1.18
0.61 0.59 0.50 0.48 0.54 0.57 0.57 0.64 0.57 0.36 0.20 0.15 0.15 0.19 0.21 0.20 0.22 0.24 0.27 0.33 0.40 0.53 0.72 0.93 1.03 1.07 1.10 1.14 1.17 1.22 1.29 1.30 1.26 1.27 1.29 1.24 1.14 1.06 1.02 1.02 1.02 1.07 1.10
0.47 0.43 0.44 0.50 0.50 0.47 0.45 0.45 0.50 0.56 0.49 0.36 0.24 0.21 0.22 0.23 0.26 0.26 0.29 0.34 0.43 0.51 0.72 0.90 1.01 1.06 1.11 1.15 1.16 1.14 1.18 1.22 1.18 1.13 1.17 1.15 1.07 1.02 1.02 1.03 1.03 0.99 0.99
0.44 0.41 0.43 0.44 0.42 0.39 0.36 0.35 0.38 0.44 0.47 0.48 0.43 0.35 0.31 0.31 0.32 0.33 0.39 0.47 0.56 0.60 0.67 0.78 0.88 0.97 0.99 1.02 1.07 1.09 1.12 1.16 1.11 1.07 1.10 1.12 1.09 1.04 0.97 0.89 0.85 0.78 0.85
0.36 0.33 0.34 0.37 0.33 0.31 0.33 0.36 0.35 0.40 0.43 0.46 0.49 0.47 0.44 0.52 0.60 0.55 0.51 0.55 0.60 0.60 0.62 0.71 0.79 0.83 0.84 0.81 0.82 0.86 0.90 0.93 0.94 0.99 1.04 1.01 0.95 0.90 0.82 0.75 0.74 0.77 0.82
0.31 0.30 0.31 0.30 0.27 0.28 0.31 0.32 0.31 0.35 0.39 0.42 0.39 0.39 0.52 0.60 0.66 0.64 0.61 0.65 0.69 0.68 0.67 0.70 0.73 0.73 0.72 0.70 0.68 0.68 0.73 0.78 0.81 0.84 0.90 0.89 0.82 0.77 0.71 0.65 0.62 0.63 0.64
0.27 0.28 0.28 0.25 0.25 0.24 0.26 0.28 0.28 0.31 0.34 0.39 0.39 0.39 0.51 0.55 0.59 0.63 0.68 0.75 0.78 0.74 0.70 0.70 0.69 0.68 0.67 0.66 0.63 0.62 0.63 0.68 0.71 0.74 0.75 0.72 0.70 0.67 0.58 0.55 0.53 0.51 0.52
0.27 0.29 0.28 0.25 0.25 0.25 0.26 0.27 0.27 0.29 0.30 0.34 0.38 0.42 0.48 0.57 0.63 0.69 0.77 0.79 0.78 0.78 0.72 0.67 0.72 0.75 0.66 0.60 0.55 0.53 0.54 0.57 0.58 0.64 0.71 0.71 0.63 0.58 0.52 0.48 0.47 0.48 0.47
0.29 0.28 0.27 0.28 0.29 0.29 0.29 0.27 0.24 0.22 0.26 0.30 0.34 0.37 0.42 0.48 0.54 0.58 0.65 0.69 0.76 0.80 0.78 0.75 0.79 0.73 0.60 0.54 0.49 0.48 0.51 0.54 0.55 0.59 0.62 0.63 0.59 0.52 0.45 0.43 0.43 0.46 0.49
0.29 0.29 0.29 0.28 0.26 0.25 0.25 0.23 0.21 0.22 0.25 0.25 0.27 0.29 0.31 0.35 0.39 0.44 0.51 0.56 0.61 0.67 0.65 0.66 0.67 0.59 0.52 0.47 0.44 0.46 0.53 0.52 0.48 0.53 0.58 0.60 0.53 0.48 0.45 0.40 0.40 0.43 0.45
0.24 0.25 0.26 0.25 0.21 0.20 0.20 0.20 0.19 0.21 0.23 0.23 0.22 0.25 0.29 0.32 0.35 0.38 0.41 0.45 0.49 0.53 0.55 0.58 0.57 0.48 0.41 0.39 0.39 0.38 0.36 0.32 0.31 0.37 0.48 0.52 0.45 0.41 0.43 0.43 0.39 0.42 0.46